Regional Weather Roundup
Issued by NWS Upton, NY

Current Version | Previous Version | Graphics & Text | Print | Product List | Glossary Off
Versions: 1 2 3 4 5 6 7 8 9 10 11 12 13 14 15 16 17 18 19 20 21 22 23 24 25 26 27 28 29 30 31 32 33 34 35 36 37 38 39 40 41 42 43 44 45 46 47 48 49 50

000
ASUS41 KOKX 270804
RWROKX

REGIONAL WEATHER ROUNDUP
NATIONAL WEATHER SERVICE NEW YORK NY
400 AM EDT SAT AUG 27 2016

NOTE: "FAIR" INDICATES FEW OR NO CLOUDS BELOW 12,000 FEET WITH NO
SIGNIFICANT WEATHER AND/OR OBSTRUCTIONS TO VISIBILITY.

NYZ071-072-176-178-NJZ106-104-270900-
NEW YORK CITY METRO AREA

CITY           SKY/WX    TMP DP  RH WIND       PRES   REMARKS
Central Park     N/A     75  59  57 MISG        N/A
LaGuardia APRT CLEAR     78  60  53 N8        30.10R
Kennedy INTL   PTCLDY    77  61  57 NE8       30.10S
Newark/Liberty CLEAR     73  63  70 N6        30.11R
Bronx Bot Gard   N/A     73  57  56 CALM      30.11S
Wall St Helipt SUNNY     79  66  65 CALM      30.11R
Teterboro      CLEAR     70  63  78 NW3       30.10R
$$

NYZ177-179-078>081-270900-
LONG ISLAND NEW YORK

CITY           SKY/WX    TMP DP  RH WIND       PRES   REMARKS
Farmingdale    CLEAR     73  61  65 N6        30.10R
MacArthur/ISP  CLEAR     72  60  66 N7        30.09R
Shirley        CLEAR     69  63  81 N6        30.10R
Riverhead      NOT AVBL
Westhampton    CLEAR     71  63  75 N7        30.10S
Southampton      N/A     73  66  78 N3        30.05R
Bridgehampton    N/A     72  64  78 E1        30.08R
East Hampton   FAIR      70  64  79 N3        30.08R
Montauk          N/A     72  67  84 CALM      30.09S
$$

NYZ052-065-067-270900-
HUDSON VALLEY

CITY           SKY/WX    TMP DP  RH WIND       PRES   REMARKS
White Plains   CLEAR     71  59  65 N8        30.12R
Newburgh       NOT AVBL
Montgomery     PTCLDY    63  62  97 CALM      30.14R FOG
Poughkeepsie   CLEAR     60  59  96 CALM      30.13R
Albany         CLEAR     66  60  81 CALM      30.14R
$$

NJZ001-105-106-008-010-013-015-019>022-104-270900-
NEW JERSEY

CITY           SKY/WX    TMP DP  RH WIND       PRES   REMARKS
Newark/Liberty CLEAR     73  63  70 N6        30.11R
Teterboro      CLEAR     70  63  78 NW3       30.10R
Caldwell       CLEAR     68  65  90 CALM      30.13R
Morristown     CLEAR     63  63 100 CALM      30.13R
Somerville     CLEAR     66  63  90 NW6       30.10S
Linden         FAIR      73  62  68 CALM      30.12S
Sussex         CLEAR     62  61  96 CALM      30.14S FOG
Abdover          N/A     63  61  93 CALM      30.15R
Trenton        CLEAR     70  62  76 CALM      30.10S
Millville      CLEAR     71  66  84 NW3       30.10R
Atlantic City  CLEAR     69  64  84 NE3       30.09S
Wrightstown    CLEAR     68  64  87 N5        30.08R
Toms River     CLEAR     67  63  87 CALM      30.10S
Belmar         CLEAR     71  65  81 N3        30.11S
$$

PAZ047>061-062-071-270900-
EASTERN PENNSYLVANIA

CITY           SKY/WX    TMP DP  RH WIND       PRES   REMARKS
Philadelphia   CLEAR     75  64  68 N6        30.11S
Allentown      CLEAR     65  61  87 CALM      30.13S
Scranton       CLEAR     64  61  90 CALM      30.18R
$$

CTZ002-004>006-009-010-012-RIZ004-006-007-MAZ004-011-015-270900-
SOUTHERN NEW ENGLAND
 IN CT

CITY           SKY/WX    TMP DP  RH WIND       PRES   REMARKS
Bradley INTL   CLEAR     66  60  81 CALM      30.12R
Hartford       CLEAR     70  65  84 CALM      30.11R
Danbury        CLEAR     60  59  96 CALM      30.14S
Wtrbury/Oxford   N/A     70  55  60 N10       30.14S
Bridgeport     CLEAR     75  59  57 N13       30.09S
Meriden        CLEAR     65  60  84 CALM      30.11R
New Haven      CLEAR     70  59  68 N8        30.10R
Chester        FAIR      72  61  68 N5        30.11R
Groton         CLEAR     73  64  73 N9        30.08R
Wilimantic     CLEAR     66  65  96 CALM      30.11S

 IN RI

CITY           SKY/WX    TMP DP  RH WIND       PRES   REMARKS
Providence     CLEAR     73  62  68 N6        30.09S
Block Island   CLEAR     72  65  78 N7        30.09R
Westerly       CLEAR     71  63  75 N5        30.09R
 IN MA

CITY           SKY/WX    TMP DP  RH WIND       PRES   REMARKS
Boston         CLEAR     74  60  61 NW7       30.09R
Worcester      CLEAR     71  53  52 N6        30.14R
Westfield      CLEAR     64  61  90 N5        30.12R
Provincetown   CLEAR     69  64  84 N8        30.08R
Nantucket      CLEAR     71  64  78 N12       30.06R
$$

ANZ330-335-338-340-345-350-353-355-270900-
COASTAL MARINE OBSERVATIONS


STATION/POSITION TIME  SKY/WX   TEMP    WIND        PRES    VSBY  WAVE
                                AIR SEA DIR/SP/G                  HT/PER
                 (UTC)          (F)     (DEG/KT/KT) (MB)    (MI)  (FT/S)
NY HARB ENTRANCE 0650            77 74   10/  8/ 10 1018.5          2/ 7
20S FIRE ISLAND  0650            76 74  360/ 10/ 12 1018.1          2/ 8
GREAT SOUTH BAY  0700            76 79  350/ 10/ 12   N/A
23 SSW MONTAUK P 0650            75 74  340/ 12/ 14 1018.3          2/ 7
15 E BARNEGAT LI 0700               76                N/A           2/ 8
HUDSON CANYON    0650            80 78              1017.5          3/ 8
KINGS POINT      0700            76 77              1018.9
EXECUTION ROCKS  0700            76     350/  8/ 10   N/A
CENTRAL LI SOUND 0715            76 75  360/ 12/ 16   N/A           2/ 3
EASTERN LI SOUND 0700            73 70   10/  8/ 12   N/A
ROBBINS REEF     0712            77     350/  7/  8 1018.5
$$


>>>>>>>>>>>>>>>>>>>>>>>>>>>> KEY <<<<<<<<<<<<<<<<<<<<<<<<<<<
>                                                          <
>     SKY/WX - Sky Condition/Present Weather               <
>     TMP    - Temperature in Fahrenheit                   <
>     DP     - Dew Point in Fahrenheit                     <
>     RH     - Relative Humidity in Percent                <
>     WIND   - Direction (from) and Speed in MPH           <
>     PRES   - Mean Sea Level Pressure (inches of Hg)      <
>     WCI    - Wind Chill Index                            <
>     VSB    - VISIBILITY IN MILES                         <
>     HX     - HEAT INDEX                                  <
>     TC     - TEMPERATURE IN CELSIUS                      <
>     VRB    - VARIABLE WIND DIRECTION                     <
>                                                          <
>>>>>>>>>>>>>>>>>>>>>>>>>>>> KEY <<<<<<<<<<<<<<<<<<<<<<<<<<<



USA.gov is the U.S. government's official web portal to all federal, state and local government web resources and services.